CZ-6A DEB, 55896

Orbit data source: Space-Track

CZ-6A DEB, 55896 is space debris in SSO originally from a launch on Fri, 11 Nov 2022 UTC launched from the Taiyaun Space Center, China (TSC). Debris objects in space refer to the collection of defunct objects orbiting the Earth. Examples of debris include non-operational satellites, rocket bodies, and fragments generated from explosions, collisions, or faulty payload assembly.

Loading next visibility...
Identifier
55896, 2022-151AAU
Orbit
SSO
Country
Flag of CNCN / PRC
Related business
Manufacturer
SAST
Mission
Spacecraft
Bus & Motor
Unknown
Mass
Unknown
Launch date (UTC)
2022-11-11 (3 years ago)
Launch vehicle
Unknown
Launch site
Taiyaun Space Center, China (TSC)
Object type
Payload
Rocket body
Debris
Shape & HBR
Unknown shape, 0.1 m
Radar Cross Section
Small (<0.1 m²)

Expand to show TLE details & history
Last TLE update: 2 days ago

TLE from 2 days ago
0 CZ-6A DEB
1 55896U 22151AAU 25350.96391308  .00003469  00000-0  15473-2 0  9992
2 55896  98.8090 359.3641 0036799  87.9034 272.6357 14.23046404154522
Epoch: 2025-12-16T23:08Z
TLE epoch observation values (Epoch: 2025-12-16T23:08:02.090Z)
Latitude
-0.00002°
Longitude
-73.48518°
Altitude
816.864 km
Speed
7.445 km/s
True Right ascension
23h 57m 27s
True Declination
0° 00' 00"
Sunlit
Object was in daylight at epoch
Visualization orbit readout
Latitude
Unknown
Longitude
Unknown
Altitude
Unknown
Speed
Unknown
Apparent Right ascension
Unknown
Apparent Declination
Unknown
Sunlit
N/A
Visualization observer readout
Local Sidereal Time
14:42:57
Azimuth
Unknown
Elevation
Unknown
Doppler factor
Unknown
Orbital elements
Apogee altitude
838.688 km
Perigee altitude
785.768 km
Semi-major axis
7,190.365 km
Eccentricity
0.00368
Inclination
98.809°
RAAN
359.3641°
Arg. of periapsis
87.9034°
True anomaly
272.21438°
Mean anomaly
272.6357°
Eccentric anomaly
272.42505°
Mean motion
3.55973 °/min
Orbital period
101.13 mins
BSTAR
0.0015473
Loading maneuver chart data...
Computing Atmospheric mass density...
Loading historical data...
Loading historical data...
Loading historical data...
Loading historical data...
Loading historical data...
Loading historical data...
Loading historical data...

Documentation

Showing up to 5 results
|